Regional Weather Roundup
Issued by NWS

Home | Current Version | Previous Version | Text Only | Print | Product List | Glossary Off
Versions: 1 2 3 4 5 6 7 8 9 10 11 12 13 14 15 16 17 18 19 20 21 22 23 24 25 26 27 28 29 30 31 32 33 34 35 36 37 38 39 40 41 42 43 44 45 46 47 48 49 50

000
ASUS44 KMEG 230200
RWRTN
TENNESSEE HOURLY STATE WEATHER ROUNDUP
NATIONAL WEATHER SERVICE MEMPHIS TN
900 PM CDT FRI JUL 22 2016

TNZ002-004-019-021-049-052-054-088>092-230300-
WEST TENNESSEE

CITY           SKY/WX    TMP DP  RH WIND       PRES   REMARKS
MEMPHIS INTL   CLOUDY    91  74  57 NE16G24   30.00R HX 100
NWS MEMPHIS      N/A     81 N/A N/A MISG        N/A
JACKSON        MOCLDY    82  75  78 CALM      30.00F
DYERSBURG      CLOUDY    75  72  88 MISG      30.01R
UNION CITY     CLEAR     79  75  89 CALM      30.00R
PARIS          PTCLDY    73  72  94 CALM      30.02R
LEXINGTON      PTCLDY    75  73  94 CALM      30.02R
$$

TNZ008-025-027-028-033-062-065-066-230300-
NORTH MIDDLE TENNESSEE

CITY           SKY/WX    TMP DP  RH WIND       PRES   REMARKS
NASHVILLE      CLOUDY    83  67  58 N5        30.02R
CLARKSVILLE    CLOUDY    80  71  74 NW3       30.02R
COOKEVILLE     CLEAR     81  79  94 CALM      30.05R
CROSSVILLE     MOCLDY    77  74  90 W3        30.10R
$$

TNZ061-075-076-078-094-096-097-230300-
SOUTH MIDDLE TENNESSEE

CITY           SKY/WX    TMP DP  RH WIND       PRES   REMARKS
TULLAHOMA      CLEAR     81  73  78 CALM      30.04R
WINCHESTER     CLEAR     81  73  78 CALM      30.03R
MCMINNVILLE    CLEAR     79  77  94 CALM      30.05R
COLUMBIA       CLEAR     81  81 100 W3        30.01R HX  91
SHELBYVILLE    CLEAR     82  81  94 CALM      30.03R HX  95
$$

TNZ017-018-042-046-047-230300-
NORTHEAST TENNESSEE

CITY           SKY/WX    TMP DP  RH WIND       PRES   REMARKS
TRI CITIES     CLOUDY    80  69  69 SE3       30.05R
$$

TNZ012-013-036-069-073-074-230300-
CENTRAL EAST TENNESSEE

CITY           SKY/WX    TMP DP  RH WIND       PRES   REMARKS
KNOXVILLE      MOCLDY    83  71  67 CALM      30.00S
OAK RIDGE      MOCLDY    86  70  58 VRB3      30.03R HX  90
GATLINBURG     PTCLDY    81  66  61 CALM      30.02R
$$

TNZ083-085-099-230300-
SOUTHEAST TENNESSEE

CITY           SKY/WX    TMP DP  RH WIND       PRES   REMARKS
CHATTANOOGA    MOCLDY    81  71  71 S3        30.01S
$$

SKY/WX REPORTED AS FAIR MEANS FEW OR NO CLOUDS BELOW
12 THOUSAND FEET.





USA.gov is the U.S. government's official web portal to all federal, state and local government web resources and services.